Weather History for Asheboro, NC

Change the Weather History Date:

Thursday, September 26, 2013

  Actual Average Record
Temperature  
Mean Temperature 64 °F -  
Max Temperature 74 °F 79 °F 93 °F (1986)
Min Temperature 55 °F 57 °F 36 °F (1950)
Growing Degree Days 14 (Base 50)    
Moisture  
Dew Point 56 °F    
Average Humidity 79    
Maximum Humidity 100    
Minimum Humidity 43    
Precipitation  
Precipitation 0.00 in - - ()
Sea Level Pressure  
Sea Level Pressure 29.99 in    
Wind  
Wind Speed 2 mph (NNE)    
Max Wind Speed 12 mph    
Max Gust Speed 17 mph    
Visibility 8 miles    
Events      
Averages and records for this station are not official NWS values.
T = Trace of Precipitation, MM = Missing Value Source: NWS Daily Summary

Daily Weather History Graph

Daily Weather History Graph

Search for Another Location

Airport:

Trip Planner

Search our weather history database for the weather conditions in past years. The results will help you decide how hot, cold, wet, or windy it might be!

Date:

Astronomy

Sep. 26, 2013 Rise Set
Actual Time 7:10 AM EDT 7:10 PM EDT
Civil Twilight 6:45 AM EDT 7:35 PM EDT
Nautical Twilight 6:15 AM EDT 8:05 PM EDT
Astronomical Twilight 5:45 AM EDT 8:35 PM EDT
Moon No Moon Rise 1:51 PM EDT (9/26)
Length of Visible Light 12h 50m
Length of Day
11h 59m
Waning Gibbous, 55% of the Moon is Illuminated
Sep 26
Waning Gibbous
Sep 26
Last Quarter
Oct 4
New
Oct 11
First Quarter
Oct 18
Full

Hourly Weather History & Observations

Time (EDT) Temp. Dew Point Humidity Pressure Visibility Wind Dir Wind Speed Gust Speed Precip Events Conditions
12:15 AM 61.5 °F 60.8 °F 97% 29.95 in 7.0 mi Calm Calm - N/A   Scattered Clouds
12:35 AM 60.8 °F 60.3 °F 98% 29.95 in 7.0 mi Calm Calm - N/A   Clear
12:55 AM 60.1 °F 59.9 °F 99% 29.94 in 7.0 mi Calm Calm - N/A   Clear
1:15 AM 59.4 °F 59.2 °F 99% 29.94 in 5.0 mi Calm Calm - N/A   Clear
1:35 AM 59.0 °F 59.0 °F 100% 29.93 in 5.0 mi Calm Calm - N/A   Clear
1:55 AM 58.5 °F 58.3 °F 99% 29.93 in 7.0 mi Calm Calm - N/A   Clear
2:15 AM 58.1 °F 58.1 °F 100% 29.93 in 7.0 mi Calm Calm - N/A   Clear
2:35 AM 58.1 °F 57.7 °F 99% 29.93 in 7.0 mi Calm Calm - N/A   Clear
2:55 AM 57.7 °F 57.7 °F 100% 29.93 in 1.5 mi Calm Calm - N/A   Mostly Cloudy
3:15 AM 58.1 °F 58.1 °F 100% 29.93 in 5.0 mi Calm Calm - N/A   Scattered Clouds
3:35 AM 58.1 °F 58.1 °F 100% 29.93 in 5.0 mi Calm Calm - N/A   Clear
3:55 AM 57.7 °F 57.7 °F 100% 29.93 in 5.0 mi Calm Calm - N/A   Scattered Clouds
4:15 AM 58.1 °F 58.1 °F 100% 29.93 in 5.0 mi Calm Calm - N/A   Scattered Clouds
4:35 AM 58.1 °F 58.1 °F 100% 29.93 in 5.0 mi Calm Calm - N/A   Clear
4:55 AM 58.1 °F 58.1 °F 100% 29.93 in 5.0 mi Calm Calm - N/A   Clear
5:15 AM 57.9 °F 57.9 °F 100% 29.92 in 5.0 mi Calm Calm - N/A   Clear
5:35 AM 57.2 °F 57.2 °F 100% 29.93 in 7.0 mi Calm Calm - N/A   Clear
5:55 AM 57.2 °F 57.2 °F 100% 29.93 in 5.0 mi Calm Calm - N/A   Clear
6:15 AM 57.0 °F 57.0 °F 100% 29.94 in 5.0 mi Calm Calm - N/A   Clear
6:35 AM 56.7 °F 56.7 °F 100% 29.95 in 5.0 mi Calm Calm - N/A   Clear
6:55 AM 56.3 °F 56.3 °F 100% 29.96 in 5.0 mi Calm Calm - N/A   Clear
7:15 AM 55.8 °F 55.8 °F 100% 29.96 in 4.0 mi Calm Calm - N/A   Clear
7:35 AM 55.2 °F 55.2 °F 100% 29.97 in 5.0 mi Calm Calm - N/A   Clear
7:55 AM 56.1 °F 56.1 °F 100% 29.97 in 3.0 mi Calm Calm - N/A   Scattered Clouds
8:15 AM 56.8 °F 56.8 °F 100% 29.97 in 3.0 mi Calm Calm - N/A   Scattered Clouds
8:35 AM 59.0 °F 58.5 °F 98% 29.98 in 7.0 mi Calm Calm - N/A   Clear
8:55 AM 60.6 °F 58.5 °F 93% 29.98 in 10.0 mi Calm Calm - N/A   Clear
9:15 AM 62.1 °F 59.0 °F 90% 29.98 in 10.0 mi North 3.5 mph - N/A   Clear
9:35 AM 63.3 °F 59.4 °F 87% 29.99 in 10.0 mi NW 4.6 mph - N/A   Clear
9:55 AM 65.8 °F 58.5 °F 77% 30.00 in 10.0 mi North 4.6 mph - N/A   Scattered Clouds
10:15 AM 67.5 °F 57.2 °F 70% 30.00 in 10.0 mi North 4.6 mph - N/A   Mostly Cloudy
10:35 AM 67.8 °F 56.8 °F 68% 30.01 in 10.0 mi NNE 5.8 mph - N/A   Overcast
10:55 AM 67.6 °F 57.9 °F 71% 30.01 in 10.0 mi NNE 4.6 mph - N/A   Mostly Cloudy
11:15 AM 68.0 °F 57.7 °F 70% 30.01 in 10.0 mi North 5.8 mph - N/A   Mostly Cloudy
11:35 AM 68.7 °F 56.3 °F 64% 30.01 in 10.0 mi North 5.8 mph - N/A   Mostly Cloudy
11:55 AM 70.0 °F 55.6 °F 60% 30.01 in 10.0 mi NNE 6.9 mph - N/A   Mostly Cloudy
12:15 PM 70.0 °F 56.3 °F 62% 30.01 in 10.0 mi North 9.2 mph - N/A   Scattered Clouds
12:35 PM 70.0 °F 56.1 °F 61% 30.01 in 10.0 mi North 9.2 mph - N/A   Mostly Cloudy
12:55 PM 70.3 °F 56.3 °F 61% 30.01 in 10.0 mi North 9.2 mph - N/A   Scattered Clouds
1:15 PM 70.9 °F 55.6 °F 58% 30.00 in 10.0 mi North 8.1 mph - N/A   Scattered Clouds
1:35 PM 71.6 °F 55.2 °F 56% 30.00 in 10.0 mi NNE 3.5 mph - N/A   Mostly Cloudy
1:55 PM 72.3 °F 53.4 °F 51% 29.99 in 10.0 mi ENE 3.5 mph - N/A   Scattered Clouds
2:15 PM 73.9 °F 53.2 °F 48% 29.98 in 10.0 mi North 6.9 mph - N/A   Scattered Clouds
2:35 PM 74.5 °F 50.7 °F 43% 29.98 in 10.0 mi NNE 8.1 mph - N/A   Scattered Clouds
2:55 PM 73.9 °F 51.4 °F 45% 29.98 in 10.0 mi NNE 3.5 mph - N/A   Mostly Cloudy
3:15 PM 74.1 °F 52.7 °F 47% 29.98 in 10.0 mi North 8.1 mph - N/A   Mostly Cloudy
3:35 PM 73.8 °F 49.8 °F 43% 29.98 in 10.0 mi NE 4.6 mph - N/A   Scattered Clouds
3:55 PM 74.3 °F 52.5 °F 46% 29.98 in 10.0 mi North 11.5 mph 16.1 mph N/A   Clear
4:15 PM 74.3 °F 53.4 °F 48% 29.99 in 10.0 mi NNE 9.2 mph 17.3 mph N/A   Scattered Clouds
4:35 PM 73.4 °F 53.1 °F 49% 29.99 in 10.0 mi North 10.4 mph - N/A   Scattered Clouds
4:55 PM 73.0 °F 49.8 °F 44% 29.99 in 10.0 mi NNE 6.9 mph - N/A   Mostly Cloudy
5:15 PM 73.2 °F 51.4 °F 46% 30.00 in 10.0 mi North 10.4 mph - N/A   Overcast
5:35 PM 72.0 °F 55.4 °F 56% 30.01 in 10.0 mi North 8.1 mph - N/A   Overcast
5:55 PM 70.9 °F 54.7 °F 56% 30.01 in 10.0 mi North 6.9 mph - N/A   Overcast
6:15 PM 70.2 °F 54.3 °F 57% 30.01 in 10.0 mi North 5.8 mph - N/A   Scattered Clouds
6:35 PM 69.6 °F 54.5 °F 59% 30.02 in 10.0 mi North 4.6 mph - N/A   Clear
6:55 PM 68.0 °F 54.9 °F 63% 30.02 in 10.0 mi Calm Calm - N/A   Clear
7:15 PM 66.0 °F 54.9 °F 67% 30.03 in 10.0 mi Calm Calm - N/A   Clear
7:35 PM 62.8 °F 56.1 °F 79% 30.03 in 10.0 mi Calm Calm - N/A   Clear
7:55 PM 61.7 °F 56.1 °F 82% 30.03 in 10.0 mi Calm Calm - N/A   Clear
8:15 PM 60.8 °F 55.0 °F 81% 30.04 in 10.0 mi Calm Calm - N/A   Clear
8:35 PM 59.9 °F 54.3 °F 82% 30.04 in 10.0 mi Calm Calm - N/A   Clear
8:55 PM 59.2 °F 54.3 °F 84% 30.05 in 10.0 mi Calm Calm - N/A   Clear
9:15 PM 59.0 °F 53.8 °F 83% 30.05 in 10.0 mi Calm Calm - N/A   Clear
9:35 PM 57.9 °F 54.0 °F 87% 30.06 in 10.0 mi Calm Calm - N/A   Clear
9:55 PM 57.6 °F 53.8 °F 87% 30.06 in 10.0 mi Calm Calm - N/A   Clear
10:15 PM 56.8 °F 53.6 °F 89% 30.07 in 10.0 mi Calm Calm - N/A   Clear
10:35 PM 56.3 °F 53.4 °F 90% 30.07 in 10.0 mi Calm Calm - N/A   Clear
10:55 PM 55.6 °F 53.2 °F 92% 30.07 in 10.0 mi Calm Calm - N/A   Clear
11:15 PM 55.4 °F 52.9 °F 91% 30.07 in 10.0 mi Calm Calm - N/A   Clear
11:35 PM 55.2 °F 52.9 °F 92% 30.08 in 10.0 mi Calm Calm - N/A   Clear
11:55 PM 55.0 °F 52.9 °F 92% 30.08 in 10.0 mi Calm Calm - N/A   Clear